Regional Weather Roundup
Issued by NWS Jackson, KY

Home | Current Version | Previous Version | Graphics & Text | Print | Product List | Glossary On
Versions: 1 2 3 4 5 6 7 8 9 10 11 12 13 14 15 16 17 18 19 20 21 22 23 24 25 26 27 28 29 30 31 32 33 34 35 36 37 38 39 40 41 42 43 44 45 46 47 48 49 50
000
ASUS43 KJKL 010611
RWRJKL

EAST KENTUCKY HOURLY WEATHER ROUNDUP
NATIONAL WEATHER SERVICE JACKSON KY
200 AM EDT WED OCT 01 2014

NOTE: "FAIR" INDICATES FEW OR NO CLOUDS BELOW 12,000 FEET WITH
NO SIGNIFICANT WEATHER AND/OR OBSTRUCTIONS TO VISIBILITY.

* THESE REPORTS ARE NOT UNDER NWS QUALITY CONTROL AND MAY NOT
  REPORT WEATHER SUCH AS PRECIPITATION AND FOG.

KYZ079-080-083-085-087-088-110-112-115-119-120-010700
...EASTERN KENTUCKY...

CITY           SKY/WX    TMP DP  RH WIND       PRES   REMARKS
JACKSON        CLEAR     64  57  78 CALM      29.96F
6HR MIN TEMP:  62; 6HR MAX TEMP:  72;

LONDON         CLEAR     58  55  90 CALM      29.97R
6HR MIN TEMP:  58; 6HR MAX TEMP:  70;

SOMERSET*      CLEAR     59  57  94 CALM      29.97R
MONTICELLO*    CLEAR     54  53  96 CALM      29.97S
6HR MIN TEMP:  54; 6HR MAX TEMP:  64;

WILLIAMSBURG*  CLEAR     55  55 100 CALM      29.97S
MIDDLESBORO*   CLEAR     54  54  99 CALM      29.99S
6HR MIN TEMP:  54; 6HR MAX TEMP:  66;

HARLAN APT*    MOCLDY    55  55 100 MISG      29.99S
HAZARD APT*    CLEAR     59  59 100 CALM      29.97
BLACK MTN*       N/A     59  48  67 CALM        N/A
PIKEVILLE APT* CLEAR     63  57  82 CALM      29.97S
BIG SANDY*     CLEAR     61  59  92 N3        29.97S
6HR MIN TEMP:  61; 6HR MAX TEMP:  72;

MOREHEAD APT*  CLOUDY    61  59  94 NE5       29.99S FOG
$$

KYZ035-036-041-042-044-050-067-078-099-010700
...CENTRAL KENTUCKY...

CITY           SKY/WX    TMP DP  RH WIND       PRES   REMARKS
MT STERLING*   CLEAR     59  57  94 CALM      29.99R
FLEMING/MASON* CLOUDY    55  52  88 N5        30.00R
DANVILLE*      CLEAR     57  55  94 CALM      29.97S
RICHMOND*      CLEAR     61  55  82 CALM      29.96S
LEXINGTON      CLEAR     61  57  87 NE6       29.98R
6HR MIN TEMP:  60; 6HR MAX TEMP:  74;

FRANKFORT      CLEAR     61  57  87 NE3       29.97R
6HR MIN TEMP:  61; 6HR MAX TEMP:  71;

$$

KYZ091>093-OHZ055-061-077-WVZ005-015-034-035-042-010700
...SOUTHERN OHIO/WEST VIRGINIA...

CITY           SKY/WX    TMP DP  RH WIND       PRES   REMARKS
COVINGTON      CLEAR     55  48  77 NE5       29.99S
COLUMBUS       MOCLDY    50  48  93 N5        29.99S
DAYTON         CLEAR     48  46  93 NE3       30.02R
WILMINGTON     PTCLDY    48  45  89 N5        30.00R
HUNTINGTON     CLOUDY    61  58  90 N3        29.96S
CHARLESTON     MOCLDY    61  58  90 S3        29.96R
PINEVILLE*     CLEAR     56  56 100 MISG      30.03S FOG
BECKLEY        CLEAR     57  52  83 S5        30.00S
BLUEFIELD      CLEAR     58  51  78 W6        30.02S
$$

VAZ002-007-008-TNZ017-027-036-066-071-010700
...SOUTHWEST VIRGINIA/EAST TENNESSEE...

CITY           SKY/WX    TMP DP  RH WIND       PRES   REMARKS
WISE*          CLEAR     59  50  72 SW3       30.03S
JONESVILLE*    CLEAR     52  52 100 CALM      30.00F
ABINGDON*      CLEAR     56  55  95 CALM      30.00S
BRISTOL        CLEAR     54  51  90 CALM      29.98S FOG
KNOXVILLE      CLEAR     62  57  83 CALM      29.94S
OAK RIDGE      PTCLDY    59  57  93 CALM      29.97R
CROSSVILLE     PTCLDY    58  51  78 CALM      29.99S
NASHVILLE      PTCLDY    62  56  80 CALM      29.94R
$$

...KEY TO REMARKS...
VSB - VISIBILITY IN MILES
WCI - WIND CHILL INDEX
HX  - HEAT INDEX

$$


USA.gov is the U.S. government's official web portal to all federal, state and local government web resources and services.